GLO305 SBRJ-SBGR

Flight info

Callsign GLO305
Flight time 0h 47m
Altitude 30000
Route ESORU UZ10 EDMUS
Aircraft B738/M-SDE2E3FGHIRWXY/LB1

Departure

Time 2026-05-04 00:56
Airport Santos Dumont Airport (SBRJ)

Arrival

Time 2026-05-04 01:44
Airport São Paulo/Guarulhos–Governor André Franco Montoro International Airport (SBGR)
Time Latitude Longitude Altitude Speed Heading
2026-05-04 00:29 -22.91319 -43.16573 21 ft 0 kts 268°
2026-05-04 00:46 -22.91318 -43.16569 21 ft 2 kts 267°
2026-05-04 00:46 -22.91317 -43.16551 21 ft 2 kts 265°
2026-05-04 00:46 -22.91316 -43.16533 21 ft 2 kts 261°
2026-05-04 00:47 -22.91312 -43.16515 23 ft 2 kts 237°
2026-05-04 00:47 -22.91299 -43.16507 23 ft 1 kts 178°
2026-05-04 00:47 -22.91296 -43.16507 26 ft 0 kts 177°
2026-05-04 00:52 -22.91299 -43.16507 23 ft 1 kts 178°
2026-05-04 00:52 -22.91322 -43.16506 21 ft 5 kts 177°
2026-05-04 00:52 -22.91370 -43.16502 21 ft 9 kts 174°
2026-05-04 00:52 -22.91429 -43.16474 21 ft 10 kts 137°
2026-05-04 00:53 -22.91474 -43.16429 21 ft 0 kts 136°
2026-05-04 00:54 -22.91478 -43.16425 22 ft 2 kts 136°
2026-05-04 00:54 -22.91500 -43.16403 20 ft 7 kts 137°
2026-05-04 00:54 -22.91545 -43.16357 19 ft 11 kts 136°
2026-05-04 00:54 -22.91592 -43.16305 21 ft 7 kts 134°
2026-05-04 00:55 -22.91621 -43.16270 19 ft 0 kts 130°
2026-05-04 00:55 -22.91619 -43.16251 19 ft 4 kts 52°
2026-05-04 00:55 -22.91592 -43.16248 19 ft 0 kts 358°
2026-05-04 00:56 -22.91591 -43.16248 19 ft 1 kts 358°
2026-05-04 00:56 -22.91467 -43.16258 19 ft 57 kts 356°
2026-05-04 00:56 -22.90757 -43.16304 34 ft 142 kts 356°
2026-05-04 00:56 -22.89695 -43.16368 736 ft 161 kts
2026-05-04 00:57 -22.88680 -43.15927 1673 ft 164 kts 53°
2026-05-04 00:57 -22.88319 -43.14717 2357 ft 185 kts 95°
2026-05-04 00:57 -22.88402 -43.13198 2716 ft 218 kts 95°
2026-05-04 00:57 -22.88460 -43.11471 3197 ft 235 kts 94°
2026-05-04 00:58 -22.88491 -43.09665 3992 ft 244 kts 93°
2026-05-04 00:58 -22.88508 -43.07828 5011 ft 244 kts 92°
2026-05-04 00:58 -22.88519 -43.05967 5929 ft 249 kts 91°
2026-05-04 00:58 -22.88545 -43.04069 6796 ft 256 kts 96°
2026-05-04 00:59 -22.89177 -43.02204 7260 ft 275 kts 129°
2026-05-04 00:59 -22.90709 -43.00946 7953 ft 283 kts 161°
2026-05-04 00:59 -22.92656 -43.00773 8752 ft 286 kts 194°
2026-05-04 00:59 -22.94399 -43.01782 9572 ft 288 kts 228°
2026-05-04 01:00 -22.95357 -43.03632 10388 ft 289 kts 257°
2026-05-04 01:00 -22.95968 -43.05800 10641 ft 317 kts 242°
2026-05-04 01:00 -22.97540 -43.07615 10847 ft 347 kts 216°
2026-05-04 01:00 -22.99651 -43.09069 11067 ft 369 kts 215°
2026-05-04 01:01 -23.01710 -43.10791 11545 ft 377 kts 229°
2026-05-04 01:01 -23.03037 -43.13224 12248 ft 376 kts 253°
2026-05-04 01:01 -23.03396 -43.16023 12989 ft 376 kts 273°
2026-05-04 01:01 -23.02847 -43.18797 13637 ft 381 kts 291°
2026-05-04 01:02 -23.01472 -43.21280 14201 ft 388 kts 310°
2026-05-04 01:02 -22.99719 -43.23358 14799 ft 389 kts 312°
2026-05-04 01:02 -22.97856 -43.25481 15470 ft 389 kts 312°
2026-05-04 01:02 -22.95989 -43.27625 16113 ft 390 kts 311°
2026-05-04 01:03 -22.94196 -43.29852 16682 ft 391 kts 302°
2026-05-04 01:03 -22.93040 -43.32360 17249 ft 389 kts 286°
2026-05-04 01:03 -22.92533 -43.35164 17850 ft 388 kts 274°
2026-05-04 01:03 -22.92613 -43.38090 18458 ft 388 kts 262°
2026-05-04 01:04 -22.93006 -43.40987 18940 ft 390 kts 261°
2026-05-04 01:04 -22.93414 -43.43899 19417 ft 391 kts 262°
2026-05-04 01:04 -22.93810 -43.46825 19851 ft 393 kts 262°
2026-05-04 01:04 -22.94169 -43.49738 20273 ft 395 kts 262°
2026-05-04 01:05 -22.94549 -43.52700 20746 ft 397 kts 262°
2026-05-04 01:05 -22.94928 -43.55670 21240 ft 397 kts 262°
2026-05-04 01:05 -22.95230 -43.58657 21735 ft 398 kts 265°
2026-05-04 01:05 -22.95454 -43.61652 22132 ft 401 kts 265°
2026-05-04 01:06 -22.95659 -43.64683 22557 ft 402 kts 265°
2026-05-04 01:06 -22.95869 -43.67720 22969 ft 404 kts 265°
2026-05-04 01:06 -22.96091 -43.70766 23376 ft 406 kts 265°
2026-05-04 01:06 -22.96321 -43.73823 23774 ft 407 kts 265°
2026-05-04 01:07 -22.96549 -43.76852 24120 ft 408 kts 265°
2026-05-04 01:07 -22.96781 -43.79933 24454 ft 409 kts 265°
2026-05-04 01:07 -22.97011 -43.83008 24782 ft 410 kts 265°
2026-05-04 01:07 -22.97241 -43.86096 25096 ft 411 kts 265°
2026-05-04 01:08 -22.97471 -43.89193 25404 ft 412 kts 265°
2026-05-04 01:08 -22.97701 -43.92298 25705 ft 413 kts 265°
2026-05-04 01:08 -22.97931 -43.95417 26003 ft 414 kts 265°
2026-05-04 01:08 -22.98161 -43.98541 26294 ft 416 kts 266°
2026-05-04 01:09 -22.98392 -44.01676 26565 ft 417 kts 266°
2026-05-04 01:09 -22.98622 -44.04812 26857 ft 418 kts 266°
2026-05-04 01:09 -22.98852 -44.07967 27120 ft 419 kts 266°
2026-05-04 01:09 -22.99083 -44.11127 27389 ft 420 kts 266°
2026-05-04 01:10 -22.99310 -44.14256 27628 ft 422 kts 266°
2026-05-04 01:10 -22.99541 -44.17440 27924 ft 422 kts 266°
2026-05-04 01:10 -22.99771 -44.20612 28328 ft 420 kts 266°
2026-05-04 01:10 -22.99998 -44.23763 28822 ft 416 kts 266°
2026-05-04 01:11 -23.00224 -44.26895 29291 ft 413 kts 266°
2026-05-04 01:11 -23.00448 -44.30000 29645 ft 412 kts 266°
2026-05-04 01:11 -23.00669 -44.33104 29958 ft 412 kts 267°
2026-05-04 01:11 -23.00771 -44.34534 30128 ft 412 kts 266°
2026-05-04 01:12 -23.00985 -44.37568 30211 ft 412 kts 266°
2026-05-04 01:12 -23.01423 -44.43741 30242 ft 407 kts 266°
2026-05-04 01:13 -23.01856 -44.49878 30245 ft 408 kts 266°
2026-05-04 01:13 -23.02289 -44.56043 30246 ft 409 kts 267°
2026-05-04 01:14 -23.02715 -44.62153 30249 ft 408 kts 266°
2026-05-04 01:14 -23.03229 -44.68286 30247 ft 408 kts 262°
2026-05-04 01:15 -23.04535 -44.74285 30245 ft 408 kts 258°
2026-05-04 01:15 -23.05913 -44.80269 30249 ft 408 kts 258°
2026-05-04 01:16 -23.07262 -44.86225 30263 ft 409 kts 258°
2026-05-04 01:16 -23.08607 -44.92223 30255 ft 409 kts 258°
2026-05-04 01:17 -23.09950 -44.98233 30258 ft 409 kts 259°
2026-05-04 01:17 -23.11289 -45.04244 30250 ft 409 kts 259°
2026-05-04 01:18 -23.12626 -45.10253 30252 ft 409 kts 259°
2026-05-04 01:18 -23.13963 -45.16268 30257 ft 409 kts 259°
2026-05-04 01:19 -23.15285 -45.22231 30236 ft 408 kts 259°
2026-05-04 01:19 -23.15955 -45.25263 29435 ft 414 kts 258°
2026-05-04 01:19 -23.16627 -45.28302 28592 ft 411 kts 258°
2026-05-04 01:19 -23.17293 -45.31310 27858 ft 407 kts 258°
2026-05-04 01:20 -23.17952 -45.34291 27187 ft 402 kts 258°
2026-05-04 01:20 -23.18599 -45.37227 26537 ft 398 kts 258°
2026-05-04 01:20 -23.19242 -45.40137 25913 ft 394 kts 258°
2026-05-04 01:20 -23.19885 -45.43018 25329 ft 389 kts 257°
2026-05-04 01:21 -23.20527 -45.45888 24743 ft 394 kts 257°
2026-05-04 01:21 -23.21178 -45.48801 24144 ft 398 kts 257°
2026-05-04 01:21 -23.21823 -45.51684 23518 ft 398 kts 257°
2026-05-04 01:21 -23.22471 -45.54598 22845 ft 394 kts 257°
2026-05-04 01:22 -23.23153 -45.57469 22233 ft 390 kts 255°
2026-05-04 01:22 -23.23919 -45.60292 21634 ft 387 kts 254°
2026-05-04 01:22 -23.24711 -45.63085 21097 ft 386 kts 253°
2026-05-04 01:22 -23.25504 -45.65873 20530 ft 384 kts 253°
2026-05-04 01:23 -23.26287 -45.68651 19964 ft 384 kts 253°
2026-05-04 01:23 -23.27064 -45.71434 19378 ft 384 kts 254°
2026-05-04 01:23 -23.27823 -45.74174 18809 ft 385 kts 254°
2026-05-04 01:23 -23.28594 -45.76970 18177 ft 385 kts 254°
2026-05-04 01:24 -23.29363 -45.79767 17569 ft 384 kts 254°
2026-05-04 01:24 -23.30126 -45.82543 16977 ft 383 kts 254°
2026-05-04 01:24 -23.30888 -45.85316 16401 ft 381 kts 254°
2026-05-04 01:24 -23.31643 -45.88068 15840 ft 379 kts 254°
2026-05-04 01:25 -23.32397 -45.90813 15310 ft 377 kts 254°
2026-05-04 01:25 -23.33146 -45.93494 15113 ft 367 kts 253°
2026-05-04 01:25 -23.33901 -45.96154 14928 ft 370 kts 253°
2026-05-04 01:25 -23.34406 -45.97926 14808 ft 372 kts 253°
2026-05-04 01:26 -23.35175 -46.00630 14615 ft 374 kts 253°
2026-05-04 01:26 -23.35941 -46.03331 14426 ft 372 kts 253°
2026-05-04 01:26 -23.36704 -46.06022 14236 ft 371 kts 253°
2026-05-04 01:26 -23.37464 -46.08711 14045 ft 370 kts 253°
2026-05-04 01:27 -23.38212 -46.11359 13840 ft 370 kts 253°
2026-05-04 01:27 -23.38968 -46.14040 13624 ft 370 kts 253°
2026-05-04 01:27 -23.39721 -46.16713 13447 ft 369 kts 253°
2026-05-04 01:27 -23.40474 -46.19386 13269 ft 369 kts 253°
2026-05-04 01:28 -23.41222 -46.22044 13091 ft 368 kts 253°
2026-05-04 01:28 -23.41971 -46.24707 12906 ft 368 kts 253°
2026-05-04 01:28 -23.42703 -46.27378 12731 ft 367 kts 257°
2026-05-04 01:28 -23.42851 -46.30137 12546 ft 366 kts 277°
2026-05-04 01:29 -23.42202 -46.32812 12380 ft 366 kts 294°
2026-05-04 01:29 -23.40917 -46.35199 12215 ft 366 kts 302°
2026-05-04 01:29 -23.39491 -46.37501 12034 ft 366 kts 303°
2026-05-04 01:29 -23.38054 -46.39794 11839 ft 365 kts 303°
2026-05-04 01:30 -23.36643 -46.42085 11670 ft 364 kts 303°
2026-05-04 01:30 -23.35264 -46.44355 11489 ft 362 kts 303°
2026-05-04 01:30 -23.33900 -46.46609 11304 ft 350 kts 303°
2026-05-04 01:30 -23.32587 -46.48785 11119 ft 337 kts 302°
2026-05-04 01:31 -23.31314 -46.50891 10938 ft 326 kts 303°
2026-05-04 01:31 -23.30086 -46.52922 10774 ft 315 kts 303°
2026-05-04 01:31 -23.28917 -46.54854 10609 ft 305 kts 303°
2026-05-04 01:31 -23.27763 -46.56760 10446 ft 296 kts 303°
2026-05-04 01:32 -23.26654 -46.58600 10295 ft 287 kts 301°
2026-05-04 01:32 -23.25851 -46.60534 10224 ft 275 kts 289°
2026-05-04 01:32 -23.25256 -46.62530 9908 ft 275 kts 288°
2026-05-04 01:32 -23.24687 -46.64494 9680 ft 271 kts 288°
2026-05-04 01:33 -23.24108 -46.66434 9464 ft 268 kts 289°
2026-05-04 01:33 -23.23540 -46.68362 9258 ft 267 kts 284°
2026-05-04 01:33 -23.23482 -46.70370 9048 ft 267 kts 263°
2026-05-04 01:33 -23.23818 -46.72350 8857 ft 267 kts 259°
2026-05-04 01:34 -23.24207 -46.74304 8667 ft 268 kts 259°
2026-05-04 01:34 -23.24595 -46.76298 8450 ft 270 kts 259°
2026-05-04 01:34 -23.24980 -46.78336 8039 ft 278 kts 259°
2026-05-04 01:34 -23.25673 -46.80289 7750 ft 278 kts 236°
2026-05-04 01:35 -23.26894 -46.81893 7576 ft 272 kts 229°
2026-05-04 01:35 -23.28138 -46.83394 7378 ft 269 kts 229°
2026-05-04 01:35 -23.29491 -46.84804 7173 ft 271 kts 212°
2026-05-04 01:35 -23.31268 -46.85456 6990 ft 273 kts 184°
2026-05-04 01:36 -23.33110 -46.85113 6872 ft 270 kts 154°
2026-05-04 01:36 -23.34581 -46.83891 6770 ft 267 kts 129°
2026-05-04 01:36 -23.35649 -46.82244 6689 ft 267 kts 122°
2026-05-04 01:36 -23.36659 -46.80534 6575 ft 269 kts 121°
2026-05-04 01:37 -23.37670 -46.78819 6461 ft 270 kts 122°
2026-05-04 01:37 -23.38694 -46.77104 6364 ft 270 kts 122°
2026-05-04 01:37 -23.39701 -46.75432 6262 ft 266 kts 122°
2026-05-04 01:37 -23.40707 -46.73771 6152 ft 260 kts 122°
2026-05-04 01:38 -23.41687 -46.72152 6026 ft 249 kts 122°
2026-05-04 01:38 -23.42778 -46.70814 5912 ft 242 kts 144°
2026-05-04 01:38 -23.44066 -46.70103 5800 ft 236 kts 159°
2026-05-04 01:38 -23.45471 -46.69727 5592 ft 232 kts 165°
2026-05-04 01:39 -23.46999 -46.69317 5312 ft 224 kts 154°
2026-05-04 01:39 -23.48142 -46.68271 5068 ft 209 kts 118°
2026-05-04 01:39 -23.48536 -46.66799 4938 ft 199 kts 94°
2026-05-04 01:39 -23.48380 -46.65360 4815 ft 189 kts 78°
2026-05-04 01:40 -23.48033 -46.64013 4654 ft 179 kts 76°
2026-05-04 01:40 -23.47691 -46.62755 4553 ft 167 kts 76°
2026-05-04 01:40 -23.47357 -46.61549 4448 ft 164 kts 76°
2026-05-04 01:40 -23.47041 -46.60401 4364 ft 151 kts 76°
2026-05-04 01:41 -23.46755 -46.59356 4276 ft 144 kts 77°
2026-05-04 01:41 -23.46469 -46.58294 4164 ft 148 kts 76°
2026-05-04 01:41 -23.46183 -46.57238 4085 ft 142 kts 77°
2026-05-04 01:41 -23.45915 -46.56188 3918 ft 144 kts 77°
2026-05-04 01:42 -23.45632 -46.55138 3779 ft 145 kts 77°
2026-05-04 01:42 -23.45351 -46.54111 3597 ft 141 kts 78°
2026-05-04 01:42 -23.45072 -46.53085 3402 ft 142 kts 77°
2026-05-04 01:42 -23.44803 -46.52033 3224 ft 148 kts 76°
2026-05-04 01:43 -23.44490 -46.50958 2947 ft 149 kts 73°
2026-05-04 01:43 -23.44196 -46.49895 2746 ft 144 kts 75°
2026-05-04 01:43 -23.43918 -46.48853 2518 ft 144 kts 73°
2026-05-04 01:43 -23.43646 -46.47838 2467 ft 127 kts 73°
2026-05-04 01:44 -23.43437 -46.47065 2464 ft 84 kts 74°
2026-05-04 01:44 -23.43316 -46.46613 2465 ft 41 kts 73°
2026-05-04 01:44 -23.43240 -46.46409 2468 ft 26 kts 57°
2026-05-04 01:44 -23.43122 -46.46269 2465 ft 24 kts 41°
2026-05-04 01:45 -23.43084 -46.46227 2464 ft 24 kts 46°
2026-05-04 01:45 -23.42997 -46.46140 2461 ft 8 kts 20°
2026-05-04 01:45 -23.42961 -46.46140 2463 ft 0 kts 350°
2026-05-04 01:47 -23.42959 -46.46140 2463 ft 1 kts 351°
2026-05-04 01:47 -23.42940 -46.46143 2464 ft 3 kts 350°
2026-05-04 01:47 -23.42917 -46.46149 2461 ft 3 kts 344°
2026-05-04 01:47 -23.42887 -46.46159 2463 ft 6 kts 342°
2026-05-04 01:48 -23.42839 -46.46175 2462 ft 8 kts 345°
2026-05-04 01:48 -23.42789 -46.46190 2469 ft 7 kts 344°
2026-05-04 01:48 -23.42741 -46.46205 2464 ft 7 kts 342°
2026-05-04 01:48 -23.42698 -46.46232 2465 ft 8 kts 296°
2026-05-04 01:49 -23.42703 -46.46289 2463 ft 8 kts 256°
2026-05-04 01:49 -23.42720 -46.46356 2463 ft 10 kts 253°
2026-05-04 01:49 -23.42740 -46.46429 2463 ft 10 kts 254°
2026-05-04 01:49 -23.42759 -46.46501 2462 ft 10 kts 253°
2026-05-04 01:50 -23.42779 -46.46571 2465 ft 10 kts 254°
2026-05-04 01:50 -23.42797 -46.46640 2468 ft 9 kts 253°
2026-05-04 01:50 -23.42815 -46.46706 2468 ft 9 kts 253°
2026-05-04 01:50 -23.42833 -46.46771 2464 ft 9 kts 252°
2026-05-04 01:51 -23.42851 -46.46834 2466 ft 9 kts 256°
2026-05-04 01:51 -23.42866 -46.46895 2468 ft 8 kts 252°
2026-05-04 01:51 -23.42880 -46.46947 2471 ft 6 kts 254°
2026-05-04 01:51 -23.42894 -46.46998 2468 ft 8 kts 254°
2026-05-04 01:52 -23.42908 -46.47069 2467 ft 11 kts 276°
2026-05-04 01:52 -23.42850 -46.47117 2468 ft 11 kts 343°
2026-05-04 01:52 -23.42775 -46.47140 2466 ft 11 kts 343°
2026-05-04 01:52 -23.42709 -46.47177 2467 ft 11 kts 317°
2026-05-04 01:53 -23.42656 -46.47206 2463 ft 4 kts 313°
2026-05-04 01:53 -23.42658 -46.47235 2465 ft 5 kts 253°
2026-05-04 01:53 -23.42670 -46.47280 2465 ft 6 kts 253°
2026-05-04 01:53 -23.42674 -46.47296 2465 ft 0 kts 253°